Effective Sunday, March 17, 2024, the National Weather Service National Data Buoy Center will discontinue its Dial-A-Buoy Interactive Voice Response system. For more information, see Service Change Notice 24-06 (PDF).

Station MCGA1 - 8736897 - Coast Guard Sector Mobile, AL Image indicating link to RSS feed of recent meteorological observations for station MCGA1


Conditions at MCGA1 as of
(11:48 pm CST on 03/01/2024)
0548 GMT on 03/02/2024:
     

Click on the graph icon in the table below to see a time series plot of the last five days of that observation.

5-day plot - Wind Direction Wind Direction (WDIR): NW ( 320 deg true )
5-day plot - Wind Speed Wind Speed (WSPD): 2.9 kts
5-day plot - Wind Gust Wind Gust (GST): 2.9 kts
5-day plot - Atmospheric Pressure Atmospheric Pressure (PRES):30.09 in
5-day plot - Air Temperature Air Temperature (ATMP): 59.2 °F
5-day plot - Water Temperature Water Temperature (WTMP): 58.3 °F
5-day plot - Wind Speed at 10 Meters Wind Speed at 10 meters (WSPD10M): 3.9 kts
5-day plot - Wind Speed at 20 Meters Wind Speed at 20 meters (WSPD20M): 3.9 kts
5-day plot -  Wind Speed, Wind Gust and Atmospheric Pressure Combined plot of Wind Speed, Gust, and Air Pressure
NOS Water Level Observation Network Water Level
Previous observations
TIME
(CST)
5-day plot - Wind Direction
WDIR
 
5-day plot - Wind Speed
WSPD
kts
5-day plot - Wind Gust
GST
kts
5-day plot - Wave Height
WVHT
ft
5-day plot - Dominant Wave Period
DPD
sec
5-day plot - Average Wave Period
APD
sec
5-day plot - Mean Wave Direction
MWD
 
5-day plot - Atmospheric Pressure
PRES
in
5-day plot - Pressure Tendency
PTDY
in
5-day plot - Air Temperature
ATMP
°F
5-day plot - Water Temperature
WTMP
°F
5-day plot - Dew Point
DEWP
°F
5-day plot - Salinity
SAL
psu
5-day plot - Visibility
VIS
nmi
5-day plot - Tide (above MLLW)
TIDE
ft
2024-03-01 11:42 pmNNW 2.9 4.1----30.09- 59.2 58.3----
2024-03-01 11:36 pm NW 1.0 1.9----30.09- 59.4 58.3----
2024-03-01 11:30 pm NW 1.9 1.9----30.09- 59.2 58.3----
2024-03-01 11:24 pmNNW 1.9 4.1----30.09- 59.2 58.3----
2024-03-01 11:18 pmNNW 2.9 4.1----30.09- 59.4 58.3----
2024-03-01 11:12 pm NW 1.9 2.9----30.09- 59.4 58.3----
2024-03-01 11:06 pmNNW 1.0 1.9----30.09- 59.2 58.3----
2024-03-01 11:00 pmNNW 1.0 1.9----30.09+0.01 59.2 58.3----
2024-03-01 10:54 pm N 1.0 1.9----30.09- 59.2 58.3----
2024-03-01 10:48 pm- 0.0 1.0----30.09- 59.2 58.3----
2024-03-01 10:42 pmNNW 1.0 1.9----30.09- 59.2 58.3----
2024-03-01 10:36 pm NW 1.9 2.9----30.09- 59.2 58.3----
2024-03-01 10:30 pm NW 1.0 1.9----30.09- 59.0 58.3----
2024-03-01 10:24 pm NW 1.9 2.9----30.09- 59.0 58.3----
2024-03-01 10:18 pm NW 1.9 2.9----30.10- 59.0 58.3----
2024-03-01 10:12 pmWNW 2.9 4.1----30.10- 59.0 58.3----
2024-03-01 10:06 pmWNW 1.9 2.9----30.10- 59.2 58.3----
2024-03-01 10:00 pmWNW 2.9 4.1----30.10+0.02 59.0 58.3----
2024-03-01 09:54 pm- 0.0 2.9----30.09- 59.0 58.3----
2024-03-01 09:48 pm NW 1.9 4.1----30.09- 59.0 58.3----
2024-03-01 09:42 pmNNW 1.0 1.9----30.09- 59.0 58.3----
2024-03-01 09:36 pm- 0.0 4.1----30.09- 59.0 58.3----
2024-03-01 09:30 pmNNW 2.9 4.1----30.10- 59.0 58.3----
2024-03-01 09:24 pm- 0.0 1.0----30.09- 58.8 58.3----
2024-03-01 09:18 pm- 0.0 2.9----30.09- 58.8 58.3----
2024-03-01 09:12 pmNNE 1.9 4.1----30.09- 58.8 58.3----
2024-03-01 09:06 pmENE 4.1 4.1----30.09- 58.8 58.3----
2024-03-01 09:00 pmENE 1.9 2.9----30.09+0.03 58.8 58.3----
2024-03-01 08:54 pmNNE 1.0 5.1----30.09- 58.8 58.3----
2024-03-01 08:48 pmNNE 4.1 5.1----30.09- 58.8 58.3----
2024-03-01 08:42 pm N 2.9 4.1----30.09- 59.0 58.3----
2024-03-01 08:36 pmNNE 1.9 5.1----30.09- 59.0 58.3----
2024-03-01 08:30 pm N 2.9 5.1----30.10- 59.0 58.3----
2024-03-01 08:24 pmNNW 1.9 4.1----30.09- 59.0 58.3----
2024-03-01 08:18 pm N 4.1 5.1----30.09- 58.8 58.3----
2024-03-01 08:12 pm N 4.1 5.1----30.09- 58.8 58.3----
2024-03-01 08:06 pm N 2.9 5.1----30.08- 59.0 58.3----
2024-03-01 08:00 pmNNE 2.9 7.0----30.08+0.04 58.8 58.3----
2024-03-01 07:54 pm N 6.0 8.0----30.08- 59.0 58.3----
2024-03-01 07:48 pm N 2.9 7.0----30.08- 59.2 58.3----
2024-03-01 07:42 pm N 2.9 5.1----30.08- 59.2 58.3----
2024-03-01 07:36 pmNNW 2.9 5.1----30.09- 59.4 58.3----
2024-03-01 07:30 pm N 2.9 5.1----30.08- 59.4 58.3----
2024-03-01 07:24 pm N 4.1 6.0----30.07- 59.4 58.3----
2024-03-01 07:18 pmNNW 2.9 5.1----30.08- 59.5 58.3----
2024-03-01 07:12 pmNNE 2.9 6.0----30.06- 59.5 58.3----
2024-03-01 07:06 pmNNW 4.1 6.0----30.08- 59.7 58.3----
2024-03-01 07:00 pmNNW 1.9 6.0----30.08+0.04 59.9 58.3----
2024-03-01 06:54 pmNNW 5.1 6.0----30.08- 59.9 58.3----
2024-03-01 06:48 pm N 4.1 5.1----30.07- 59.9 58.3----
2024-03-01 06:42 pm N 5.1 7.0----30.07- 60.1 58.3----
2024-03-01 06:36 pm N 6.0 7.0----30.07- 60.3 58.3----
2024-03-01 06:30 pmNNE 5.1 8.0----30.07- 60.3 58.3----
2024-03-01 06:24 pm N 5.1 7.0----30.07- 60.4 58.3----
2024-03-01 06:18 pmNNE 5.1 9.9----30.07- 60.6 58.3----
2024-03-01 06:12 pm N 7.0 11.1----30.06- 60.8 58.5----
2024-03-01 06:06 pm N 7.0 9.9----30.06- 61.3 58.5----
2024-03-01 06:00 pm N 7.0 9.9----30.06+0.00 62.1 58.5----
2024-03-01 05:54 pm N 7.0 8.0----30.05- 63.0 58.5----
2024-03-01 05:48 pm N 5.1 7.0----30.05- 63.7 58.5----
2024-03-01 05:42 pmNNE 5.1 7.0----30.05- 63.9 58.5----
2024-03-01 05:36 pm N 5.1 8.0----30.05- 64.0 58.5----
2024-03-01 05:30 pm N 5.1 12.0----30.05- 64.4 58.5----
2024-03-01 05:24 pm N 9.9 12.0----30.05- 64.8 58.5----
2024-03-01 05:18 pmENE 7.0 11.1----30.04- 66.7 58.5----
2024-03-01 05:12 pmNNW 5.1 8.0----30.04- 64.6 58.5----
2024-03-01 05:06 pm S 1.0 5.1----30.04- 63.1 58.5----
2024-03-01 05:00 pmSSE 1.9 6.0----30.03-0.04 63.5 58.5----
2024-03-01 04:54 pmSSE 1.9 6.0----30.03- 63.9 58.5----
2024-03-01 04:48 pmSSE 4.1 7.0----30.03- 64.2 58.5----
2024-03-01 04:42 pm S 6.0 7.0----30.03- 64.6 58.5----
2024-03-01 04:36 pm S 4.1 7.0----30.04- 65.1 58.5----
2024-03-01 04:30 pm S 7.0 9.9----30.04- 65.8 58.5----
2024-03-01 04:24 pm SE 1.0 4.1----30.04- 64.8 58.5----
2024-03-01 04:18 pmWNW 5.1 8.0----30.04- 64.6 58.5----
2024-03-01 04:12 pm SW 4.1 8.0----30.04- 64.0 58.5----
2024-03-01 04:06 pm S 2.9 6.0----30.04- 63.3 58.3----
2024-03-01 04:00 pm S 6.0 9.9----30.04-0.04 63.9 58.3----
2024-03-01 03:54 pm S 2.9 4.1----30.04- 63.0 58.3----
2024-03-01 03:48 pm S 1.9 2.9----30.05- 63.1 58.3----
2024-03-01 03:42 pmSSE 2.9 5.1----30.05- 63.3 58.3----
2024-03-01 03:36 pmSSE 1.0 4.1----30.04- 63.5 58.3----
2024-03-01 03:30 pmSSE 1.9 5.1----30.04- 63.5 58.3----
2024-03-01 03:24 pm S 4.1 6.0----30.04- 63.7 58.3----
2024-03-01 03:18 pm SE 4.1 7.0----30.04- 64.0 58.3----
2024-03-01 03:12 pmSSE 4.1 6.0----30.05- 63.5 58.3----
2024-03-01 03:06 pmSSE 1.9 4.1----30.05- 62.1 58.3----
2024-03-01 03:00 pmSSW 1.9 4.1----30.05-0.04 62.2 58.3----
2024-03-01 02:54 pm SE 4.1 5.1----30.05- 62.8 58.3----
2024-03-01 02:48 pm SE 4.1 5.1----30.06- 62.4 58.3----
2024-03-01 02:42 pmESE 4.1 4.1----30.05- 62.4 58.3----
2024-03-01 02:36 pm SE 1.9 2.9----30.06- 62.6 58.3----
2024-03-01 02:30 pmESE 1.9 2.9----30.06- 62.4 58.3----
2024-03-01 02:24 pm SE 1.0 1.9----30.06- 62.8 58.3----
2024-03-01 02:18 pmSSE 1.0 2.9----30.07- 62.8 58.3----
2024-03-01 02:12 pmESE 1.9 2.9----30.06- 62.4 58.1----
2024-03-01 02:06 pmESE 1.0 1.9----30.07- 62.8 58.1----
2024-03-01 02:00 pm- 0.0 1.9----30.08-0.05 62.6 58.1----
2024-03-01 01:54 pmSSE 1.9 2.9----30.07- 62.8 58.1----
2024-03-01 01:48 pmESE 2.9 5.1----30.07- 62.8 58.1----
2024-03-01 01:42 pmSSE 2.9 4.1----30.08- 63.0 58.1----
2024-03-01 01:36 pm- 0.0 4.1----30.08- 63.1 58.1----
2024-03-01 01:30 pm S 2.9 7.0----30.08- 63.1 58.1----
2024-03-01 01:24 pm SE 6.0 8.0----30.08- 62.6 58.1----
2024-03-01 01:18 pmSSE 1.9 4.1----30.08- 62.2 58.1----
2024-03-01 01:12 pmSSW 4.1 8.0----30.09- 62.2 58.1----
2024-03-01 01:06 pm S 5.1 9.9----30.09- 61.7 58.1----
2024-03-01 01:00 pmSSW 6.0 11.1----30.08-0.05 62.1 58.1----
2024-03-01 12:54 pm S 5.1 9.9----30.08- 61.5 57.9----
2024-03-01 12:48 pm S 1.9 5.1----30.08- 61.7 57.9----
2024-03-01 12:42 pm SE 1.9 8.0----30.08- 61.5 57.9----
2024-03-01 12:36 pm SE 6.0 9.9----30.07- 61.3 57.9----
2024-03-01 12:30 pm SE 8.0 11.1----30.07- 61.5 57.9----
2024-03-01 12:24 pm SE 7.0 11.1----30.08- 61.5 57.9----
2024-03-01 12:18 pm SE 8.9 13.0----30.08- 61.5 57.9----
2024-03-01 12:12 pm SE 8.0 12.0----30.08- 61.5 58.1----
2024-03-01 12:06 pm SE 8.0 13.0----30.09- 61.5 58.1----
2024-03-01 12:00 pm SE 8.0 13.0----30.09-0.04 61.3 58.1----
2024-03-01 11:54 am SE 8.9 11.1----30.09- 61.3 58.1----
2024-03-01 11:48 am SE 8.0 12.0----30.09- 61.3 58.1----
2024-03-01 11:42 am SE 8.0 11.1----30.10- 61.2 58.1----
2024-03-01 11:36 am SE 8.0 13.0----30.11- 61.2 58.1----
2024-03-01 11:30 am SE 8.9 14.0----30.10- 61.3 58.1----
2024-03-01 11:24 am SE 9.9 14.0----30.10- 61.3 58.1----
2024-03-01 11:18 am SE 9.9 13.0----30.10- 61.2 58.1----
2024-03-01 11:12 am SE 8.9 11.1----30.11- 60.8 57.9----
2024-03-01 11:06 am SE 5.1 11.1----30.13- 60.6 58.1----
2024-03-01 11:00 am SE 7.0 11.1----30.13+0.00 60.4 57.9----
2024-03-01 10:54 am SE 7.0 9.9----30.13- 60.4 57.9----
2024-03-01 10:48 amESE 7.0 9.9----30.12- 59.7 57.9----
2024-03-01 10:42 amESE 9.9 9.9----30.12- 59.7 57.9----
2024-03-01 10:36 amESE 8.9 12.0----30.13- 59.7 57.9----
2024-03-01 10:30 amESE 9.9 11.1----30.13- 59.9 57.9----
2024-03-01 10:24 am SE 7.0 8.0----30.14- 59.7 57.9----
2024-03-01 10:18 amESE 6.0 8.9----30.13- 59.5 58.1----
2024-03-01 10:12 amESE 7.0 8.9----30.13- 59.5 58.1----
2024-03-01 10:06 amESE 8.0 8.9----30.13- 59.7 58.1----
2024-03-01 10:00 am SE 8.0 11.1----30.13-0.02 59.9 58.1----
2024-03-01 09:54 amESE 8.0 11.1----30.13- 59.5 58.1----
2024-03-01 09:48 amESE 7.0 8.0----30.13- 59.2 58.1----
2024-03-01 09:42 am SE 4.1 5.1----30.15- 59.2 58.1----
2024-03-01 09:36 am SE 2.9 5.1----30.15- 59.2 58.1----
2024-03-01 09:30 am SE 4.1 8.0----30.14- 59.2 58.1----
2024-03-01 09:24 am SE 6.0 8.9----30.14- 59.0 58.3----
2024-03-01 09:18 am SE 6.0 11.1----30.14- 58.8 58.3----
2024-03-01 09:12 amESE 8.0 11.1----30.13- 58.8 58.3----
2024-03-01 09:06 amESE 8.9 12.0----30.13- 58.6 58.3----
2024-03-01 09:00 amESE 11.1 15.0----30.13-0.04 58.6 58.5----
2024-03-01 08:54 amESE 11.1 14.0----30.13- 58.5 58.5----
2024-03-01 08:48 amESE 11.1 14.0----30.13- 58.5 58.5----
2024-03-01 08:42 amESE 12.0 17.1----30.13- 58.3 58.5----
2024-03-01 08:36 amESE 13.0 17.1----30.13- 58.5 58.6----
2024-03-01 08:30 amESE 9.9 14.0----30.14- 58.5 58.6----
2024-03-01 08:24 amESE 12.0 15.0----30.14- 58.6 58.6----
2024-03-01 08:18 am SE 12.0 17.1----30.13- 58.6 58.6----
2024-03-01 08:12 am SE 9.9 15.9----30.14- 58.5 58.8----
2024-03-01 08:06 am SE 14.0 19.0----30.14- 58.3 58.8----
2024-03-01 08:00 amESE 14.0 17.1----30.13+0.00 57.6 59.0----
2024-03-01 07:54 amESE 12.0 17.1----30.14- 57.0 59.0----
2024-03-01 07:48 am SE 11.1 20.0----30.14- 57.0 59.2----
2024-03-01 07:42 am SE 15.0 20.0----30.13- 57.0 59.4----
2024-03-01 07:36 am SE 13.0 20.0----30.14- 57.2 59.5----
2024-03-01 07:30 amESE 15.9 21.0----30.14- 57.4 59.7----
2024-03-01 07:24 amESE 13.0 17.1----30.15- 57.2 59.7----
2024-03-01 07:18 amESE 14.0 15.9----30.16- 57.4 59.7----
2024-03-01 07:12 amESE 11.1 15.0----30.16- 57.2 59.7----
2024-03-01 07:06 am SE 12.0 18.1----30.16- 56.8 59.9----
2024-03-01 07:00 amESE 14.0 18.1----30.15+0.01 57.0 59.9----
2024-03-01 06:54 amESE 18.1 20.0----30.14- 57.0 59.9----
2024-03-01 06:48 amESE 15.0 20.0----30.14- 56.8 59.9----
2024-03-01 06:42 amESE 15.9 19.0----30.14- 57.2 60.1----
2024-03-01 06:36 amESE 15.0 18.1----30.14- 57.2 60.1----
2024-03-01 06:30 amESE 14.0 17.1----30.14- 57.0 60.1----
2024-03-01 06:24 amESE 14.0 18.1----30.14- 56.8 60.1----
2024-03-01 06:18 amESE 13.0 15.9----30.14- 56.7 60.1----
2024-03-01 06:12 amESE 11.1 13.0----30.14- 56.8 60.1----
2024-03-01 06:06 amESE 8.0 9.9----30.16- 56.8 60.1----
2024-03-01 06:00 am SE 5.1 8.0----30.17+0.03 56.5 60.1----
2024-03-01 05:54 am SE 6.0 8.9----30.17- 56.3 60.1----
2024-03-01 05:48 am SE 5.1 7.0----30.17- 56.3 60.1----
2024-03-01 05:42 amESE 5.1 11.1----30.17- 55.9 59.9----
2024-03-01 05:36 am SE 7.0 12.0----30.16- 55.8 60.1----
2024-03-01 05:30 amESE 9.9 12.0----30.15- 55.9 59.9----
2024-03-01 05:24 amESE 8.0 11.1----30.15- 55.4 59.9----
2024-03-01 05:18 amESE 11.1 13.0----30.15- 55.0 59.9----
2024-03-01 05:12 am SE 9.9 13.0----30.14- 54.7 59.9----
2024-03-01 05:06 amESE 12.0 15.0----30.14- 54.5 59.9----
2024-03-01 05:00 amESE 14.0 15.9----30.13-0.01 55.0 60.1----
2024-03-01 04:54 amESE 12.0 13.0----30.13- 55.0 59.9----
2024-03-01 04:48 amESE 11.1 12.0----30.14- 55.0 59.9----
2024-03-01 04:42 amESE 9.9 11.1----30.14- 55.0 59.9----
2024-03-01 04:36 amESE 8.9 9.9----30.14- 55.0 59.9----
2024-03-01 04:30 amESE 8.9 9.9----30.14- 55.2 59.9----
2024-03-01 04:24 am E 5.1 6.0----30.15- 54.9 59.9----
2024-03-01 04:18 am E 5.1 8.0----30.15- 55.0 59.9----
2024-03-01 04:12 am E 6.0 8.9----30.15- 55.8 59.9----
2024-03-01 04:06 am SE 4.1 6.0----30.15- 55.4 59.9----
2024-03-01 04:00 am SE 5.1 8.0----30.14-0.05 55.8 59.9----
2024-03-01 03:54 am SE 8.0 8.9----30.13- 55.8 60.1----
2024-03-01 03:48 amESE 7.0 9.9----30.13- 55.8 60.1----
2024-03-01 03:42 amESE 8.9 11.1----30.12- 55.9 60.1----
2024-03-01 03:36 amESE 9.9 11.1----30.13- 56.3 60.1----
2024-03-01 03:30 amESE 8.0 9.9----30.13- 56.7 59.9----
2024-03-01 03:24 amESE 11.1 12.0----30.13- 57.0 59.9----
2024-03-01 03:18 amESE 8.0 9.9----30.13- 57.2 59.9----
2024-03-01 03:12 am E 8.0 9.9----30.13- 57.2 59.9----
2024-03-01 03:06 amESE 6.0 7.0----30.13- 57.0 59.9----
2024-03-01 03:00 amESE 2.9 6.0----30.14-0.09 56.3 60.1----
2024-03-01 02:54 am E 6.0 6.0----30.14- 56.1 60.1----
2024-03-01 02:48 am E 6.0 7.0----30.15- 56.5 60.1----
2024-03-01 02:42 am E 2.9 4.1----30.15- 56.8 60.1----
2024-03-01 02:36 am E 2.9 5.1----30.16- 56.8 60.1----
2024-03-01 02:30 am E 2.9 6.0----30.15- 56.8 60.1----
2024-03-01 02:24 amENE 4.1 7.0----30.15- 56.5 60.1----
2024-03-01 02:18 am E 6.0 9.9----30.15- 56.5 60.1----
2024-03-01 02:12 am E 8.9 11.1----30.15- 57.0 60.1----
2024-03-01 02:06 am E 8.0 11.1----30.15- 57.0 60.1----
2024-03-01 02:00 am E 8.0 9.9----30.14-0.12 56.7 60.1----
2024-03-01 01:54 am E 8.0 8.9----30.15- 56.5 60.1----
2024-03-01 01:48 am E 7.0 8.9----30.17- 56.3 60.1----
2024-03-01 01:42 am E 6.0 9.9----30.17- 55.9 60.1----
2024-03-01 01:36 am E 8.9 12.0----30.17- 55.8 60.1----
2024-03-01 01:30 am E 8.0 13.0----30.18- 55.6 60.1----
2024-03-01 01:24 am E 9.9 12.0----30.17- 55.6 60.1----
2024-03-01 01:18 amENE 8.9 11.1----30.18- 55.2 60.1----
2024-03-01 01:12 amENE 9.9 12.0----30.18- 55.2 60.1----
2024-03-01 01:06 amENE 11.1 13.0----30.18- 55.6 60.1----
2024-03-01 01:00 amENE 8.9 9.9----30.19-0.05 55.8 60.1----
2024-03-01 12:54 am NE 8.0 9.9----30.20- 55.8 60.1----
2024-03-01 12:48 am NE 8.9 9.9----30.21- 55.8 60.1----
2024-03-01 12:42 am NE 8.9 8.9----30.21- 55.8 60.1----
2024-03-01 12:36 amENE 8.0 9.9----30.22- 55.8 60.1----
2024-03-01 12:30 am NE 8.0 8.9----30.22- 56.1 60.1----
2024-03-01 12:24 am NE 6.0 7.0----30.22- 55.8 60.1----
2024-03-01 12:18 am NE 4.1 5.1----30.23- 55.6 60.1----
2024-03-01 12:12 am N 4.1 7.0----30.23- 55.6 60.1----
2024-03-01 12:06 am N 5.1 6.0----30.24- 55.6 60.1----
2024-03-01 12:00 am N 2.9 5.1----30.23+0.00- 60.1----
2024-02-29 11:54 pm N 5.1 6.0----30.23-- 60.1----